Tracking 30923 objects as of 1-Jul-2025
HD Live streaming from Space Station
objects crossing your sky now

STARLINK-5668

Track STARLINK-5668 now!
10-day predictions
STARLINK-5668 is classified as:


NORAD ID: 55350
Int'l Code: 2023-013V
Perigee: 565.2 km
Apogee: 567.3 km
Inclination: 43.0 °
Period: 95.8 minutes
Semi major axis: 6937 km
RCS: Unknown
Launch date: January 26, 2023
Source: United States (US)
Launch site: AIR FORCE EASTERN TEST RANGE (AFETR)
Your satellite tracking list
ZY 1
Track 1 satellite(s)




NASA's NSSDC Master Catalog

Two Line Element Set (TLE):
1 55350U 23013V   25181.49448954  .00000025  00000-0  16909-4 0  9997
2 55350  43.0028 230.6099 0001526 273.9684  86.0984 15.02534674133772
Source of the keplerian elements: AFSPC